Content
SEND FEEDBACK

Daily
Averages
Monthly
Summary
United States of America

ASATDAS, GUAM


Home > North America > United States > Guam
Elevation: 612 feet     Latitude: 13 35N     Longitude: 144 56E

WEATHER
 
SELECT A DAY
Number of Records: 213,786;   Date Range: 1/1/95 - 10/20/14
 
SHARE

PRINT THIS DATA

[ ← Previous Day ]
WEATHER ALMANAC - SEPTEMBER 5, 2013
[ Next Day → ]
[ °C ]   °F
Weather ElementAverageHighLow
Temperature81.8 °F87.1 °F (12:54 pm)75.2 °F (9:00 pm)
Dewpoint75.4 °F77 °F (7:54 am)72 °F (6:54 pm)
Humidity81.4 %94 % (8:54 pm)65 % (4:54 pm)
Barometer29.81 in29.87 in (9:33 pm)29.75 in (3:54 pm)
Wind Speed7.9 mph20.7 mph (8:28 pm)
Wind Gust27.6 mph (8:28 pm)
Weather ElementAverage
Visibility9.4 mi
Wind DirectionENE (72.1 °)

Weather ElementTotal
Precipitation0.39 in
Cooling Degree Days16.2 (Base 65)
Growing Degree Days31.2 (Base 50)
Averaged from 29 records on September 5, 2013
WEATHER CONDITIONS BREAKOUT
WIND DIRECTION BREAKOUT
WEATHER BY HOUR - SEPTEMBER 5, 2013
[ °C ]   °F
Local TimeTemperatureDewpointHumidityBarometerVisibilityWind DirectionWind SpeedGust SpeedPrecipitationEventsConditions
1:54 AM79.0 °F75.9 °F90 %29.80 in10.0 miNE (40°)4.6 mphPartly Cloudy
2:54 AM79.0 °F75.9 °F90 %29.79 in10.0 miNNE (30°)5.8 mphScattered Clouds
3:54 AM79.0 °F75.0 °F88 %29.78 in10.0 miENE (60°)4.6 mphPartly Cloudy
4:54 AM79.0 °F75.0 °F88 %29.80 in10.0 miCalmPartly Cloudy
5:54 AM79.0 °F75.0 °F88 %29.80 in10.0 miNE (50°)4.6 mphClear
6:54 AM80.1 °F75.9 °F87 %29.81 in10.0 miCalm0.00 inRainLight Rain
7:54 AM82.0 °F77.0 °F85 %29.82 in10.0 miENE (70°)9.2 mph0.00 inMostly Cloudy
8:21 AM78.8 °F75.2 °F89 %29.85 in1.8 miEast (80°)10.4 mph19.6 mph0.01 inRainHeavy Rain
8:32 AM82.4 °F77.0 °F84 %29.84 in10.0 miEast (80°)9.2 mph0.09 inRainLight Rain
8:54 AM84.0 °F77.0 °F79 %29.83 in10.0 miEast (90°)8.1 mph0.09 inClear
9:54 AM84.0 °F77.0 °F79 %29.82 in10.0 miEast (90°)8.1 mphPartly Cloudy
10:54 AM84.0 °F77.0 °F79 %29.83 in10.0 miESE (110°)8.1 mphMostly Cloudy
11:11 AM84.2 °F75.2 °F74 %29.85 in10.0 miESE (110°)6.9 mphPartly Cloudy
11:54 AM86.0 °F75.9 °F72 %29.82 in10.0 miESE (110°)10.4 mphScattered Clouds
12:54 PM87.1 °F77.0 °F72 %29.80 in10.0 miESE (110°)10.4 mphPartly Cloudy
1:54 PM86.0 °F75.9 °F72 %29.78 in10.0 miEast (100°)9.2 mphPartly Cloudy
2:54 PM87.1 °F75.0 °F67 %29.76 in10.0 miEast (100°)10.4 mphPartly Cloudy
3:54 PM86.0 °F75.0 °F70 %29.75 in10.0 miESE (110°)11.5 mph16.1 mphPartly Cloudy
4:54 PM87.1 °F73.9 °F65 %29.75 in10.0 miENE (70°)10.4 mphScattered Clouds
5:54 PM86.0 °F73.9 °F67 %29.77 in10.0 miEast (80°)10.4 mphScattered Clouds
6:54 PM82.9 °F72.0 °F69 %29.79 in10.0 miENE (70°)8.1 mph0.00 inScattered Clouds
7:54 PM82.0 °F75.9 °F82 %29.81 in10.0 miENE (60°)6.9 mphScattered Clouds
8:28 PM80.6 °F77.0 °F89 %29.86 in5.0 miEast (80°)20.7 mph27.6 mph0.06 inRain-ThunderstormThunderstorms and Rain
8:54 PM75.9 °F73.9 °F94 %29.84 in8.0 miEast (90°)9.2 mph0.08 inRain-ThunderstormLight Thunderstorms and Rain
9:00 PM75.2 °F73.4 °F94 %29.86 in8.0 miEast (90°)8.1 mph0.00 inRainLight Rain
9:33 PM78.8 °F73.4 °F83 %29.87 in10.0 miENE (70°)5.8 mph0.02 inRainLight Rain
9:54 PM79.0 °F75.0 °F88 %29.83 in10.0 miEast (80°)9.2 mph0.03 inRainLight Rain
10:54 PM79.0 °F75.0 °F88 %29.83 in10.0 miENE (60°)8.1 mph0.01 inMostly Cloudy
11:54 PM79.0 °F75.9 °F90 %29.83 in10.0 miCalmScattered Clouds
Hourly data recorded from PGUM, located miles away from Asatdas, Guam







STORIES FROM OUR PARTNERS